• Em Portugal
  • Lista de países
  • Para 7 dias
  • Temperatura da água
  • Mapas de satélite
  • Mapa do tempo
  • Widgets de tempo
  • user-avatar
    Iniciar Sessão

    Previsão horária em Salyan

    Hoje, 20 Fevereiro, Terça-feira

    Tempo Temperatura Precipitação Vento Pressão Humidade
    00:00 +11°C° 0 mm 1 m/s 652 mmHg 51%
    01:00 +11°C° 0 mm 1 m/s 651 mmHg 49%
    02:00 +11°C° 0 mm 1 m/s 651 mmHg 46%
    03:00 +11°C° 0 mm 1 m/s 651 mmHg 44%
    04:00 +10°C° 0 mm 1 m/s 651 mmHg 43%
    05:00 +11°C° 0 mm 1 m/s 651 mmHg 42%
    06:00 +12°C° 0 mm 1 m/s 652 mmHg 39%
    07:00 +14°C° 0 mm 1 m/s 652 mmHg 37%
    08:00 +16°C° 0 mm 1 m/s 653 mmHg 34%
    09:00 +19°C° 0 mm 1 m/s 654 mmHg 33%
    10:00 +20°C° 0 mm 2 m/s 654 mmHg 32%
    11:00 +23°C° 0 mm 2 m/s 655 mmHg 28%
    12:00 +23°C° 0 mm 2 m/s 654 mmHg 29%
    13:00 +22°C° 0 mm 3 m/s 654 mmHg 31%
    14:00 +22°C° 0 mm 3 m/s 653 mmHg 32%
    15:00 +20°C° 0 mm 2 m/s 653 mmHg 38%
    16:00 +18°C° 0 mm 2 m/s 653 mmHg 44%
    17:00 +16°C° 0 mm 1 m/s 652 mmHg 55%
    18:00 +15°C° 0 mm 1 m/s 652 mmHg 58%
    19:00 +13°C° 0 mm 1 m/s 652 mmHg 61%
    20:00 +12°C° 0 mm 1 m/s 652 mmHg 65%
    21:00 +12°C° 0 mm 1 m/s 652 mmHg 65%
    22:00 +12°C° 0 mm 1 m/s 652 mmHg 66%
    23:00 +11°C° 0 mm 1 m/s 651 mmHg 66%

    Amanhã, 21 Fevereiro, Quarta-feira

    Tempo Temperatura Precipitação Vento Pressão Humidade
    00:00 +11°C° 0 mm 1 m/s 651 mmHg 65%
    01:00 +11°C° 0 mm 1 m/s 651 mmHg 64%
    02:00 +11°C° 0 mm 1 m/s 650 mmHg 63%
    03:00 +10°C° 0 mm 1 m/s 650 mmHg 60%
    04:00 +10°C° 0 mm 1 m/s 650 mmHg 58%
    05:00 +10°C° 0 mm 1 m/s 650 mmHg 55%
    06:00 +12°C° 0 mm 1 m/s 651 mmHg 49%
    07:00 +14°C° 0 mm 1 m/s 651 mmHg 43%
    08:00 +15°C° 0 mm 0 m/s 652 mmHg 38%
    09:00 +19°C° 0 mm 1 m/s 653 mmHg 36%
    10:00 +21°C° 0 mm 1 m/s 653 mmHg 34%
    11:00 +21°C° 0 mm 2 m/s 653 mmHg 32%
    12:00 +23°C° 0 mm 2 m/s 653 mmHg 33%
    13:00 +22°C° 0 mm 3 m/s 652 mmHg 33%
    14:00 +22°C° 0 mm 3 m/s 652 mmHg 34%
    15:00 +20°C° 0 mm 2 m/s 651 mmHg 40%
    16:00 +19°C° 0 mm 2 m/s 651 mmHg 47%
    17:00 +18°C° 0 mm 1 m/s 650 mmHg 53%
    18:00 +16°C° 0 mm 1 m/s 650 mmHg 57%
    19:00 +14°C° 0 mm 1 m/s 650 mmHg 62%
    20:00 +13°C° 0 mm 1 m/s 651 mmHg 66%
    21:00 +12°C° 0 mm 1 m/s 650 mmHg 66%
    22:00 +12°C° 0 mm 1 m/s 650 mmHg 66%
    23:00 +12°C° 0 mm 1 m/s 650 mmHg 65%

    Depois de amanhã, 22 Fevereiro, Quinta-feira

    Tempo Temperatura Precipitação Vento Pressão Humidade
    00:00 +10°C° 0 mm 2 m/s 650 mmHg 63%
    01:00 +10°C° 0 mm 2 m/s 650 mmHg 61%
    02:00 +10°C° 0 mm 2 m/s 649 mmHg 59%
    03:00 +10°C° 0 mm 2 m/s 649 mmHg 56%
    04:00 +9°C° 0 mm 2 m/s 649 mmHg 53%
    05:00 +9°C° 0 mm 2 m/s 649 mmHg 50%
    06:00 +12°C° 0 mm 1 m/s 650 mmHg 45%
    07:00 +14°C° 0 mm 1 m/s 651 mmHg 40%
    08:00 +16°C° 0 mm 1 m/s 652 mmHg 35%
    09:00 +19°C° 0 mm 1 m/s 652 mmHg 33%
    10:00 +20°C° 0 mm 2 m/s 653 mmHg 31%
    11:00 +23°C° 0 mm 2 m/s 653 mmHg 29%
    12:00 +22°C° 0 mm 3 m/s 652 mmHg 30%
    13:00 +22°C° 0 mm 3 m/s 652 mmHg 30%
    14:00 +22°C° 0 mm 4 m/s 651 mmHg 30%
    15:00 +21°C° 0 mm 3 m/s 651 mmHg 36%
    16:00 +19°C° 0 mm 2 m/s 651 mmHg 42%
    17:00 +19°C° 0 mm 1 m/s 650 mmHg 48%
    18:00 +16°C° 0 mm 1 m/s 651 mmHg 52%
    19:00 +15°C° 0 mm 1 m/s 651 mmHg 55%
    20:00 +13°C° 0 mm 1 m/s 651 mmHg 59%
    21:00 +13°C° 0 mm 1 m/s 651 mmHg 57%
    22:00 +12°C° 0 mm 2 m/s 651 mmHg 56%
    23:00 +12°C° 0 mm 2 m/s 651 mmHg 55%

    23 Fevereiro, Sexta-feira

    Tempo Temperatura Precipitação Vento Pressão Humidade
    00:00 +10°C° 0 mm 2 m/s 651 mmHg 51%
    01:00 +10°C° 0 mm 2 m/s 650 mmHg 48%
    02:00 +10°C° 0 mm 2 m/s 650 mmHg 45%
    03:00 +10°C° 0 mm 2 m/s 650 mmHg 41%
    04:00 +10°C° 0 mm 2 m/s 650 mmHg 38%
    05:00 +9°C° 0 mm 2 m/s 650 mmHg 35%
    06:00 +12°C° 0 mm 2 m/s 651 mmHg 32%
    07:00 +14°C° 0 mm 1 m/s 652 mmHg 29%
    08:00 +18°C° 0 mm 1 m/s 653 mmHg 26%
    09:00 +19°C° 0 mm 1 m/s 653 mmHg 25%
    10:00 +20°C° 0 mm 2 m/s 654 mmHg 24%
    11:00 +23°C° 0 mm 2 m/s 654 mmHg 23%
    12:00 +24°C° 0 mm 2 m/s 654 mmHg 23%
    13:00 +24°C° 0 mm 3 m/s 653 mmHg 23%
    14:00 +24°C° 0 mm 3 m/s 653 mmHg 23%
    15:00 +23°C° 0 mm 2 m/s 652 mmHg 29%
    16:00 +20°C° 0 mm 2 m/s 652 mmHg 34%
    17:00 +19°C° 0 mm 1 m/s 651 mmHg 39%
    18:00 +16°C° 0 mm 1 m/s 652 mmHg 41%
    19:00 +15°C° 0 mm 1 m/s 652 mmHg 43%
    20:00 +13°C° 0 mm 2 m/s 652 mmHg 45%
    21:00 +13°C° 0 mm 2 m/s 652 mmHg 43%
    22:00 +13°C° 0 mm 2 m/s 652 mmHg 42%
    23:00 +12°C° 0 mm 2 m/s 652 mmHg 40%

    24 Fevereiro, Sábado

    Tempo Temperatura Precipitação Vento Pressão Humidade
    00:00 +12°C° 0 mm 2 m/s 652 mmHg 37%
    01:00 +12°C° 0 mm 2 m/s 652 mmHg 35%
    02:00 +12°C° 0 mm 2 m/s 651 mmHg 32%
    03:00 +12°C° 0 mm 2 m/s 651 mmHg 30%
    04:00 +12°C° 0 mm 2 m/s 651 mmHg 27%
    05:00 +12°C° 0 mm 2 m/s 652 mmHg 25%
    06:00 +14°C° 0 mm 2 m/s 653 mmHg 24%
    07:00 +16°C° 0 mm 1 m/s 654 mmHg 22%
    08:00 +19°C° 0 mm 1 m/s 655 mmHg 21%
    09:00 +20°C° 0 mm 2 m/s 656 mmHg 20%
    10:00 +23°C° 0 mm 2 m/s 656 mmHg 20%
    11:00 +25°C° 0 mm 2 m/s 657 mmHg 19%
    12:00 +25°C° 0 mm 2 m/s 656 mmHg 20%
    13:00 +25°C° 0 mm 3 m/s 656 mmHg 21%
    14:00 +25°C° 0 mm 3 m/s 655 mmHg 23%
    15:00 +23°C° 0 mm 2 m/s 655 mmHg 29%
    16:00 +20°C° 0 mm 2 m/s 654 mmHg 35%
    17:00 +20°C° 0 mm 1 m/s 654 mmHg 41%
    18:00 +18°C° 0 mm 1 m/s 654 mmHg 41%
    19:00 +16°C° 0 mm 1 m/s 655 mmHg 42%
    20:00 +15°C° 0 mm 2 m/s 655 mmHg 43%
    21:00 +15°C° 0 mm 2 m/s 655 mmHg 42%
    22:00 +14°C° 0 mm 2 m/s 655 mmHg 41%
    23:00 +14°C° 0 mm 2 m/s 654 mmHg 40%

    25 Fevereiro, Domingo

    Tempo Temperatura Precipitação Vento Pressão Humidade
    00:00 +13°C° 0,1 mm 2 m/s 654 mmHg 40%
    01:00 +13°C° 0,1 mm 2 m/s 654 mmHg 40%
    02:00 +13°C° 0,1 mm 2 m/s 653 mmHg 40%
    03:00 +13°C° 0 mm 2 m/s 653 mmHg 41%
    04:00 +13°C° 0 mm 2 m/s 653 mmHg 41%
    05:00 +12°C° 0 mm 2 m/s 653 mmHg 41%
    06:00 +14°C° 0 mm 2 m/s 654 mmHg 38%
    07:00 +16°C° 0 mm 1 m/s 655 mmHg 35%
    08:00 +19°C° 0 mm 1 m/s 656 mmHg 32%
    09:00 +20°C° 0 mm 2 m/s 656 mmHg 29%
    10:00 +24°C° 0 mm 2 m/s 657 mmHg 26%
    11:00 +26°C° 0 mm 2 m/s 657 mmHg 23%
    12:00 +26°C° 0 mm 3 m/s 656 mmHg 23%
    13:00 +26°C° 0 mm 4 m/s 656 mmHg 23%
    14:00 +26°C° 0 mm 4 m/s 655 mmHg 22%
    15:00 +25°C° 0 mm 3 m/s 654 mmHg 27%
    16:00 +22°C° 0 mm 3 m/s 654 mmHg 32%
    17:00 +21°C° 0 mm 2 m/s 653 mmHg 36%
    18:00 +19°C° 0 mm 2 m/s 653 mmHg 39%
    19:00 +17°C° 0 mm 2 m/s 653 mmHg 42%
    20:00 +15°C° 0 mm 2 m/s 653 mmHg 45%
    21:00 +15°C° 0 mm 2 m/s 653 mmHg 44%
    22:00 +14°C° 0 mm 2 m/s 653 mmHg 42%
    23:00 +14°C° 0 mm 2 m/s 653 mmHg 41%
    Mostrar mais